Wetbulb
58.57 58.85 58.93 58.79 58.68 58.42 58.68 58.79 58.84 59.16 59.62 59.81 60.03 60.01 59.76 59.36 58.19 49.07 46.38 54.34 55.54 64.23 63.23 52.43 50.71 50.27 48.39 47.74 50.72 51.33 43.99 41.94 46.25 47.82 49.01 55.16 55.39 58.54 61.07 60.12 62.00 63.33 62.23 64.49 68.91
58.38 58.41 58.56 58.56 58.41 58.36 58.41 58.54 58.77 59.03 59.09 59.63 59.72 59.58 59.41 59.14 51.57 48.23 57.67 65.30 67.51 65.77 51.80 49.31 47.47 49.00 46.82 45.96 47.28 47.26 42.33 44.14 50.23 52.32 51.74 55.60 56.11 58.34 58.74 59.04 59.98 62.06 64.42 67.07 68.47
58.10 58.11 58.23 58.42 58.39 58.20 58.18 58.27 58.43 58.82 59.13 59.31 59.20 59.14 59.09 57.59 48.42 50.98 66.40 66.27 67.64 64.85 51.30 50.12 48.98 48.65 44.97 44.53 44.50 43.65 42.94 45.56 48.75 53.69 53.67 56.35 55.68 59.24 57.38 55.77 59.61 60.49 61.88 64.83 66.09
57.18 57.85 57.97 58.15 58.07 58.12 57.87 58.20 58.49 58.69 59.19 58.87 58.59 58.91 59.45 53.32 41.28 50.17 70.24 67.80 68.55 56.08 51.58 49.61 48.75 45.04 43.48 43.26 44.76 42.12 46.77 48.01 51.04 56.42 52.49 53.63 56.56 58.49 58.39 58.87 62.97 63.50 63.37 63.82 64.87
57.41 57.43 57.69 57.81 57.86 57.72 57.66 57.73 58.12 58.10 58.38 58.27 58.70 59.09 53.88 47.58 49.21 56.49 68.90 68.10 56.69 52.78 49.95 48.07 45.87 45.71 45.89 44.47 44.50 43.38 45.91 48.47 51.41 53.25 50.59 55.63 55.84 57.91 58.64 60.72 63.84 63.57 63.25 63.07 63.75
56.94 57.19 57.47 57.41 57.43 57.36 57.27 57.01 56.82 56.86 57.33 58.10 58.91 59.04 49.88 42.68 51.67 58.68 58.36 54.59 53.25 50.31 50.14 48.74 47.48 48.96 46.00 45.14 43.81 46.74 45.83 45.69 47.89 49.43 50.04 52.87 52.49 59.10 58.23 62.82 62.43 61.65 61.66 61.75 62.63
56.59 56.57 56.86 56.86 57.10 57.05 56.90 56.37 56.11 56.72 57.85 58.67 59.59 57.69 49.54 47.25 54.94 57.42 56.07 53.45 53.73 52.70 50.18 50.28 50.28 49.30 47.77 45.22 46.02 45.52 45.95 45.71 46.17 49.13 49.12 53.88 49.93 52.27 56.99 62.81 60.75 61.27 60.96 61.07 61.36
56.48 56.49 56.61 56.68 56.76 56.92 57.05 56.76 56.70 57.36 58.28 59.20 59.79 53.56 46.42 52.50 54.47 54.14 54.78 53.74 53.89 53.57 52.16 52.27 51.60 48.96 45.95 46.24 46.67 43.95 42.77 39.59 44.78 48.83 50.68 50.74 44.89 52.04 59.70 61.59 59.15 59.62 59.75 60.13 60.85
56.06 56.00 56.26 56.49 56.74 56.90 56.58 56.27 57.01 58.15 58.71 59.66 51.74 48.15 48.04 58.17 54.00 54.84 54.32 53.47 53.22 53.08 53.10 55.15 49.86 46.16 46.65 42.72 41.98 43.03 39.55 40.41 43.81 46.35 50.04 46.06 42.82 50.04 59.99 61.05 58.26 58.85 58.61 59.30 59.27
55.70 55.37 55.52 55.78 56.29 56.07 55.40 55.72 56.05 56.05 57.34 58.18 56.74 47.17 50.58 51.53 54.62 54.19 53.17 54.00 51.79 50.58 49.54 49.46 45.56 43.85 42.07 41.56 38.32 39.55 40.72 41.62 41.32 45.53 45.19 42.89 41.95 47.22 54.09 58.50 56.35 56.66 57.70 58.32 58.46
55.10 55.09 55.15 55.27 55.57 54.98 49.93 46.03 45.00 45.57 48.21 45.87 46.99 48.32 50.24 53.93 54.41 51.82 53.27 52.39 51.10 48.59 43.89 45.87 43.98 40.99 42.13 42.63 43.75 44.38 42.98 42.58 44.39 46.17 43.54 42.43 43.92 47.08 52.86 55.24 54.79 55.10 56.00 56.97 57.75
54.53 54.69 55.13 55.21 55.16 54.57 47.00 44.61 48.14 50.68 45.71 51.92 48.65 50.95 52.82 52.86 49.21 51.70 52.79 49.01 47.79 43.84 44.91 43.87 40.81 45.43 45.89 46.65 46.61 44.69 41.74 41.30 44.49 46.73 45.12 44.18 45.11 48.01 51.93 53.62 54.91 54.80 55.22 56.34 56.36
54.16 54.30 54.65 54.95 54.68 47.76 44.66 47.45 50.67 50.14 44.62 49.89 51.63 50.39 50.33 51.19 49.07 50.17 51.13 48.75 46.13 43.98 43.31 41.95 44.71 49.13 48.01 45.97 45.84 42.60 42.38 41.79 43.03 44.84 44.51 44.11 43.65 44.53 49.64 54.23 56.14 56.09 56.01 56.28 55.66
53.66 53.77 53.91 54.28 48.90 46.73 49.89 52.66 51.13 50.31 40.47 44.66 48.49 50.81 51.08 50.27 48.81 52.95 52.11 50.12 47.42 44.66 45.65 44.06 46.89 48.06 46.53 45.78 44.93 40.90 45.93 46.04 44.64 41.55 37.39 41.49 35.93 41.24 44.96 49.67 52.76 54.32 55.01 55.80 56.15
53.42 53.68 53.38 53.54 48.07 47.18 52.57 49.50 49.25 49.07 32.23 45.75 48.22 52.05 49.47 49.00 48.89 51.97 54.35 51.98 46.36 47.09 47.12 44.47 45.77 45.87 45.38 45.36 47.05 44.88 46.46 44.55 43.25 39.42 36.92 39.57 37.45 39.42 44.20 46.25 49.19 52.40 54.70 55.88 56.65
53.19 53.40 52.93 51.18 47.69 48.08 50.95 49.09 50.40 40.81 34.94 45.38 48.46 47.34 45.48 46.58 48.53 51.63 51.44 52.46 51.35 48.80 48.35 45.79 48.86 47.65 46.89 48.32 48.09 47.98 44.27 41.72 39.05 37.15 33.47 36.84 37.44 37.75 41.14 45.13 46.21 48.70 50.54 55.40 56.82
53.05 53.07 51.63 52.63 49.59 49.27 49.88 48.96 40.20 35.50 45.66 45.02 43.59 44.89 44.31 45.45 47.11 49.71 48.83 45.59 44.47 42.89 42.21 46.22 46.37 48.78 50.07 46.12 47.47 45.10 39.53 33.04 32.92 32.03 32.82 38.29 37.72 39.56 43.70 46.23 47.99 49.13 51.53 53.24 55.64
51.72 51.48 51.16 53.49 48.55 50.75 49.55 45.36 33.85 42.05 44.11 49.97 49.09 44.76 43.87 45.64 45.56 48.33 46.84 44.46 46.79 46.92 43.08 40.90 40.88 47.19 50.28 46.46 44.25 41.32 40.05 34.31 30.05 29.83 32.92 39.26 35.52 40.35 46.14 47.73 48.44 50.30 53.10 55.04 55.64
50.22 48.67 48.54 52.21 52.94 50.34 47.67 37.93 37.85 42.98 49.12 48.94 48.08 42.12 41.66 47.13 44.44 45.85 44.81 44.97 47.12 47.89 44.02 42.09 42.77 49.51 49.78 48.71 47.85 42.82 39.90 40.64 35.28 33.67 32.59 35.28 40.12 44.48 46.26 46.83 47.77 49.26 52.86 53.35 54.16
47.52 48.84 49.70 52.69 51.55 49.82 43.77 39.62 43.29 49.91 50.92 49.08 43.53 46.48 42.00 45.79 43.12 43.40 43.66 48.81 48.99 49.90 48.77 46.87 41.32 47.64 50.40 49.87 49.20 44.93 45.16 39.15 36.26 31.48 29.82 34.08 36.01 38.16 43.25 45.09 46.84 47.84 48.79 51.18 52.19
47.76 46.52 51.58 51.56 51.22 45.60 39.27 40.55 46.11 51.34 50.64 47.05 45.83 45.75 47.38 45.92 45.85 42.12 44.62 49.53 52.42 49.36 48.92 45.35 43.31 44.06 46.94 44.40 43.03 44.21 40.98 38.81 37.84 36.12 31.64 29.98 34.54 42.77 44.10 45.48 45.58 46.85 47.55 48.03 48.93
42.49 43.26 51.10 50.95 44.37 40.23 41.22 45.17 47.79 48.23 51.05 50.35 48.48 48.02 46.86 47.21 47.89 47.23 46.82 48.92 54.67 51.31 46.85 46.10 41.66 38.98 41.51 46.48 47.63 44.35 40.52 39.18 35.41 34.45 34.13 32.87 34.60 43.96 44.99 45.43 46.58 46.61 47.31 46.94 46.93
39.81 42.80 51.96 50.34 39.84 39.15 42.48 47.35 49.77 49.00 49.83 50.31 48.12 49.49 49.39 46.58 44.18 49.11 49.03 54.20 53.43 52.35 48.49 46.61 40.49 35.86 39.67 42.73 46.31 44.38 43.56 40.35 37.74 35.72 34.46 32.02 35.81 46.20 46.95 46.00 46.87 46.56 46.83 47.12 47.25
42.18 40.06 46.67 47.10 44.65 43.09 41.93 44.05 45.13 50.48 50.87 50.89 48.53 49.88 47.10 46.36 47.35 46.74 48.33 52.02 53.11 52.62 55.22 50.38 40.60 39.23 36.70 38.59 41.72 40.67 43.57 42.13 39.53 33.97 35.04 35.88 38.71 42.73 45.34 45.89 46.71 46.57 46.41 46.15 46.51
40.82 40.78 45.12 42.09 45.26 44.69 43.49 45.71 45.23 45.89 48.83 49.26 45.71 47.15 45.41 42.81 44.88 45.98 49.00 49.52 51.02 53.54 49.64 46.69 42.40 42.47 42.27 45.05 44.85 43.31 43.25 43.13 40.08 40.07 37.54 39.56 39.59 43.01 44.07 46.19 46.95 46.64 46.82 46.87 47.41
38.74 43.68 46.88 42.81 44.55 44.73 43.94 44.67 45.30 47.20 47.17 46.89 45.97 48.63 46.42 44.10 45.81 45.65 47.62 45.49 45.53 48.52 45.57 44.20 41.83 41.51 40.77 45.56 45.44 43.19 44.95 44.78 44.02 42.66 41.54 42.18 41.58 45.34 46.65 46.16 46.90 47.16 47.39 46.91 46.75
46.82 47.51 46.63 43.46 42.71 42.10 42.61 43.23 44.97 46.18 48.10 50.99 50.28 48.66 47.10 49.44 50.33 48.21 49.06 48.10 47.27 46.03 45.00 43.53 42.23 38.75 37.13 43.88 43.16 38.75 43.90 44.28 44.58 45.18 44.71 40.53 43.24 46.53 46.10 46.91 46.71 46.93 47.04 47.63 48.00
MSLP
1017.38 1017.48 1017.16 1016.93 1016.84 1016.70 1016.75 1016.68 1016.31 1016.20 1015.94 1015.64 1015.45 1015.14 1014.81 1014.37 1013.59 1013.31 1012.56 1010.54 1010.54 1010.49 1010.36 1010.32 1010.39 1010.62 1010.85 1011.46 1011.94 1012.82 1014.15 1014.81 1014.49 1014.28 1013.76 1013.94 1014.21 1014.48 1014.48 1015.11 1015.03 1014.93 1015.08 1015.34 1015.91
1017.35 1017.34 1016.89 1016.89 1016.76 1016.66 1016.72 1016.59 1016.20 1016.09 1015.89 1015.69 1015.39 1015.08 1014.76 1014.40 1013.87 1012.49 1009.81 1010.06 1010.33 1010.29 1010.36 1010.50 1010.76 1010.90 1011.42 1011.64 1012.07 1012.62 1013.77 1013.59 1012.95 1012.72 1012.78 1013.40 1013.87 1014.30 1014.77 1015.10 1014.91 1014.93 1015.11 1015.45 1015.88
1017.25 1017.06 1016.78 1016.82 1016.68 1016.63 1016.59 1016.43 1016.07 1015.93 1015.84 1015.61 1015.27 1014.97 1014.73 1014.41 1013.50 1010.51 1009.20 1009.83 1010.15 1010.27 1010.36 1010.48 1010.69 1010.92 1011.36 1011.69 1011.97 1012.46 1012.55 1012.11 1011.94 1011.93 1011.94 1013.27 1013.81 1013.90 1014.53 1015.41 1014.43 1014.37 1015.14 1015.58 1015.89
1017.05 1016.77 1016.65 1016.61 1016.62 1016.53 1016.39 1016.21 1015.85 1015.76 1015.68 1015.54 1015.22 1014.84 1014.49 1014.17 1012.57 1009.71 1009.23 1009.49 1009.84 1010.16 1010.50 1010.71 1010.79 1011.11 1011.29 1011.61 1011.59 1012.09 1011.51 1011.62 1011.26 1011.18 1011.84 1012.69 1013.22 1013.79 1014.04 1013.68 1013.54 1013.97 1014.36 1015.09 1015.48
1016.81 1016.51 1016.43 1016.43 1016.45 1016.35 1016.22 1015.96 1015.61 1015.48 1015.50 1015.42 1015.11 1014.80 1014.25 1013.63 1011.64 1009.55 1009.68 1009.85 1010.07 1010.41 1010.57 1010.67 1010.70 1011.03 1011.36 1011.43 1011.48 1011.47 1010.79 1010.76 1010.75 1010.98 1011.44 1012.15 1012.57 1013.33 1013.43 1013.42 1013.60 1014.43 1015.01 1015.35 1015.72
1016.45 1016.18 1016.24 1016.26 1016.26 1016.16 1016.02 1015.73 1015.39 1015.24 1015.27 1015.26 1015.03 1014.80 1014.44 1012.60 1009.63 1009.44 1009.70 1010.03 1010.19 1010.49 1010.60 1010.53 1010.43 1010.63 1010.96 1011.10 1011.10 1010.71 1010.60 1010.26 1010.90 1011.28 1011.54 1012.11 1013.06 1013.24 1013.24 1013.64 1014.28 1014.69 1015.24 1015.88 1016.12
1016.10 1015.95 1016.09 1016.09 1016.03 1015.86 1015.77 1015.43 1015.10 1014.99 1015.06 1015.08 1014.96 1014.69 1014.16 1010.91 1009.44 1009.56 1009.60 1009.63 1009.76 1010.05 1010.18 1010.00 1009.92 1010.27 1010.52 1010.67 1010.80 1010.65 1010.76 1010.74 1010.92 1011.51 1011.93 1012.20 1013.53 1013.23 1012.88 1013.74 1014.66 1015.27 1015.72 1016.18 1016.62
1015.97 1015.91 1015.92 1015.91 1015.70 1015.63 1015.45 1014.99 1014.82 1014.83 1014.86 1014.77 1014.68 1014.50 1012.60 1009.48 1009.32 1009.53 1009.62 1009.48 1009.41 1009.52 1009.61 1009.47 1009.76 1010.14 1010.47 1010.72 1010.83 1011.21 1011.41 1011.87 1011.47 1011.37 1011.94 1011.92 1013.03 1012.94 1013.14 1013.96 1014.99 1015.44 1015.91 1016.35 1016.91
1015.90 1015.83 1015.72 1015.63 1015.45 1015.31 1015.03 1014.74 1014.56 1014.46 1014.53 1014.49 1014.50 1013.96 1011.36 1008.95 1008.99 1008.59 1008.79 1008.91 1008.81 1008.99 1009.23 1009.59 1009.71 1010.62 1011.02 1011.71 1012.03 1012.12 1012.38 1012.22 1011.76 1011.57 1011.86 1012.48 1013.54 1013.44 1013.71 1014.27 1015.07 1015.76 1016.38 1016.73 1017.29
1015.82 1015.66 1015.47 1015.42 1015.29 1015.16 1014.77 1014.53 1014.20 1014.39 1014.32 1014.29 1013.95 1013.62 1010.71 1009.56 1008.82 1008.46 1008.41 1008.52 1008.43 1008.68 1009.28 1009.81 1010.79 1011.59 1012.34 1012.38 1013.03 1012.79 1012.59 1012.41 1012.17 1012.21 1012.47 1013.19 1014.36 1014.57 1014.82 1015.38 1016.40 1016.78 1016.99 1017.43 1017.58
1015.71 1015.46 1015.32 1015.28 1015.24 1015.04 1014.29 1014.01 1014.58 1014.41 1013.73 1012.84 1012.33 1011.65 1010.25 1009.27 1008.55 1008.43 1008.14 1008.33 1008.60 1009.36 1010.45 1011.08 1011.78 1012.41 1012.39 1012.21 1012.27 1012.52 1012.67 1012.61 1012.42 1012.63 1013.20 1014.38 1015.32 1015.71 1015.87 1016.41 1016.96 1017.28 1017.53 1017.62 1017.72
1015.57 1015.26 1015.21 1015.14 1015.02 1014.69 1014.61 1014.24 1013.53 1013.43 1012.93 1011.60 1011.54 1011.07 1009.94 1009.35 1009.11 1008.28 1008.00 1008.64 1009.20 1010.24 1010.92 1011.60 1011.94 1011.82 1011.99 1012.06 1012.30 1012.59 1012.89 1012.93 1012.85 1013.02 1013.83 1015.01 1015.81 1016.43 1016.66 1017.17 1017.53 1017.81 1017.95 1017.91 1018.08
1015.37 1015.19 1015.10 1014.89 1014.69 1014.70 1014.29 1013.38 1012.90 1012.87 1013.03 1011.49 1010.81 1010.07 1009.40 1009.48 1009.29 1008.73 1008.45 1008.98 1009.58 1010.35 1010.98 1011.53 1011.46 1011.40 1011.65 1012.21 1012.51 1012.93 1012.97 1013.11 1013.54 1013.89 1014.65 1015.53 1016.54 1016.67 1016.93 1017.36 1017.73 1017.90 1018.13 1018.37 1018.43
1015.15 1015.03 1014.82 1014.76 1015.11 1014.53 1013.76 1012.68 1012.72 1012.80 1012.94 1011.49 1010.26 1008.91 1008.96 1008.97 1009.00 1008.39 1008.38 1008.91 1009.74 1010.34 1011.01 1011.39 1011.16 1011.27 1011.80 1012.21 1012.63 1013.03 1013.04 1013.50 1013.99 1014.93 1015.87 1016.53 1017.91 1017.53 1017.42 1017.45 1017.55 1017.68 1017.95 1018.18 1018.34
1015.13 1014.82 1014.58 1014.93 1014.34 1014.04 1013.10 1012.76 1012.66 1012.73 1012.90 1011.09 1009.54 1008.40 1008.59 1009.00 1008.83 1008.47 1008.34 1008.77 1009.73 1010.40 1011.07 1011.60 1011.58 1011.78 1012.11 1012.47 1012.73 1013.33 1013.52 1014.44 1015.23 1016.12 1016.90 1017.53 1017.89 1017.93 1017.73 1017.65 1017.34 1017.42 1017.64 1017.88 1018.12
1014.82 1014.52 1014.62 1014.72 1014.33 1012.84 1012.56 1012.44 1012.77 1013.32 1012.41 1010.87 1009.51 1008.90 1009.05 1009.00 1008.84 1008.61 1008.61 1009.02 1009.86 1010.79 1011.34 1011.71 1011.51 1011.54 1011.94 1012.51 1012.88 1013.42 1014.37 1015.76 1016.82 1017.53 1018.57 1018.60 1018.53 1018.34 1017.78 1017.08 1017.04 1017.01 1017.14 1017.34 1017.56
1014.37 1014.19 1014.27 1013.54 1013.12 1012.49 1012.48 1013.08 1013.73 1013.74 1012.38 1011.36 1010.23 1009.60 1009.50 1009.51 1009.33 1009.25 1009.57 1010.10 1010.88 1011.83 1012.55 1012.27 1012.17 1011.85 1011.88 1012.63 1013.31 1014.07 1015.50 1017.48 1018.72 1019.56 1019.90 1018.96 1018.59 1017.81 1017.07 1016.76 1016.78 1016.79 1016.93 1016.97 1017.13
1013.81 1013.64 1013.51 1012.71 1012.32 1012.26 1012.70 1013.57 1014.21 1013.68 1012.66 1011.48 1010.77 1010.18 1010.20 1009.99 1009.85 1010.06 1010.44 1011.16 1011.41 1011.92 1013.14 1013.28 1013.01 1012.38 1012.08 1012.75 1013.83 1015.22 1016.39 1018.29 1019.92 1021.08 1020.57 1019.29 1018.71 1017.49 1016.84 1016.60 1016.57 1016.76 1017.02 1017.02 1017.10
1013.75 1013.64 1013.65 1012.52 1012.08 1012.46 1013.33 1014.65 1014.69 1013.92 1012.90 1011.99 1011.18 1010.71 1010.63 1010.40 1010.57 1010.69 1011.07 1011.65 1011.75 1011.89 1012.73 1013.57 1013.33 1012.60 1012.57 1012.87 1013.88 1015.41 1016.91 1018.15 1019.78 1021.29 1021.31 1020.17 1018.89 1017.36 1016.89 1016.76 1016.87 1017.06 1017.26 1017.09 1017.59
1014.31 1014.16 1013.49 1012.50 1012.29 1012.98 1014.55 1015.33 1014.78 1013.77 1012.90 1012.18 1011.74 1011.18 1011.01 1011.08 1011.21 1011.40 1011.71 1011.62 1011.78 1011.99 1012.24 1013.48 1013.85 1013.57 1013.27 1013.52 1014.13 1014.84 1016.83 1018.34 1019.88 1021.42 1021.67 1020.60 1019.53 1018.33 1017.52 1017.21 1017.07 1017.11 1017.20 1017.26 1017.39
1014.78 1014.46 1013.40 1012.71 1012.55 1013.96 1015.71 1015.50 1014.58 1013.45 1012.88 1012.41 1011.93 1011.48 1011.37 1011.46 1011.76 1012.02 1011.96 1011.93 1012.02 1012.39 1012.62 1013.64 1014.36 1014.78 1014.34 1014.57 1015.00 1015.78 1017.04 1018.92 1020.21 1021.42 1021.68 1021.31 1019.44 1017.43 1016.88 1016.61 1016.64 1016.86 1017.17 1017.30 1017.58
1015.75 1015.29 1013.51 1012.94 1014.13 1015.61 1015.81 1015.00 1014.23 1013.43 1012.78 1012.24 1012.05 1011.68 1011.61 1011.86 1012.14 1012.34 1012.36 1012.42 1012.46 1012.62 1013.52 1014.44 1015.34 1016.02 1015.77 1015.41 1015.50 1015.93 1017.19 1018.66 1020.50 1021.72 1021.95 1021.33 1018.82 1016.98 1016.73 1016.40 1016.51 1017.20 1017.40 1017.52 1017.87
1017.57 1016.30 1013.80 1013.50 1015.22 1016.09 1015.53 1014.83 1014.15 1013.58 1012.98 1012.33 1012.01 1011.76 1011.81 1012.26 1012.60 1012.63 1012.60 1012.77 1012.74 1013.15 1013.88 1014.57 1016.35 1017.04 1016.73 1016.31 1015.87 1016.41 1017.31 1018.51 1019.92 1020.94 1021.33 1021.20 1018.72 1016.87 1016.63 1016.60 1016.75 1017.13 1017.24 1017.80 1018.08
1018.29 1017.61 1015.96 1015.57 1015.85 1015.62 1015.60 1015.05 1014.45 1013.37 1013.09 1012.54 1012.15 1012.01 1012.07 1012.56 1012.81 1013.06 1013.15 1013.19 1013.26 1013.71 1014.35 1014.77 1016.74 1017.17 1017.44 1016.90 1016.77 1016.94 1017.47 1018.18 1019.11 1020.62 1020.45 1019.83 1018.42 1017.13 1016.78 1016.87 1016.79 1016.88 1017.23 1017.90 1018.35
1019.08 1019.09 1018.36 1017.53 1016.97 1016.11 1015.59 1015.27 1014.73 1014.00 1013.16 1012.64 1012.67 1012.52 1012.64 1013.09 1013.35 1013.49 1013.55 1013.71 1013.93 1014.42 1014.94 1015.56 1017.20 1017.54 1017.48 1017.05 1016.89 1017.03 1017.33 1017.83 1018.61 1018.86 1019.34 1018.53 1018.19 1017.07 1016.67 1016.55 1016.37 1016.99 1017.57 1017.89 1018.17
1019.91 1019.62 1018.82 1018.05 1017.38 1016.55 1016.20 1015.53 1014.97 1014.24 1013.70 1013.13 1013.04 1012.90 1012.90 1013.20 1013.38 1013.92 1014.04 1014.49 1014.67 1015.14 1015.81 1016.66 1017.72 1017.85 1018.04 1017.55 1017.25 1017.18 1017.20 1017.35 1017.68 1017.88 1018.24 1017.90 1017.34 1016.46 1016.22 1016.56 1016.94 1017.35 1017.71 1017.85 1018.08
1020.35 1019.83 1019.40 1018.81 1017.85 1017.17 1016.54 1015.76 1015.09 1014.72 1013.80 1013.29 1013.19 1013.29 1013.43 1013.35 1013.65 1013.98 1014.25 1014.96 1015.29 1015.80 1016.85 1017.62 1018.50 1019.00 1019.03 1018.42 1017.81 1017.67 1017.17 1017.20 1017.17 1017.18 1017.25 1017.43 1016.93 1016.55 1016.61 1016.98 1017.17 1017.31 1017.62 1018.03 1018.21
Wind_Speed
7 9 7 7 8 8 9 10 9 11 12 12 12 13 12 13 13 1 7 12 4 2 1 3 5 6 4 3 3 4 6 1 4 5 4 6 6 2 4 7 5 6 6 6 12
7 9 7 8 8 8 9 10 9 10 12 12 12 12 11 11 3 5 12 5 3 3 3 4 2 4 3 2 1 5 4 9 7 6 8 12 5 11 5 9 6 4 6 11 13
8 8 7 8 8 8 8 10 9 10 11 12 12 12 11 6 5 7 1 9 10 6 4 3 3 2 2 2 2 3 6 5 5 7 8 13 7 6 11 6 10 15 12 13 10
8 8 8 7 8 8 9 10 9 11 11 11 12 12 13 1 2 2 6 14 11 8 4 3 3 2 2 2 2 1 7 3 4 8 8 12 10 6 15 10 9 15 17 15 16
8 7 8 8 8 9 9 10 10 10 11 11 11 11 4 5 9 2 8 9 7 5 4 4 3 3 1 3 1 4 4 5 3 6 5 10 9 8 15 5 11 10 13 12 11
7 6 8 8 9 9 10 11 10 10 11 9 9 10 2 4 3 3 8 6 4 4 3 5 5 5 2 3 2 3 5 1 6 4 4 8 5 9 9 7 8 13 12 7 8
7 7 9 8 9 9 11 11 10 11 11 9 7 2 1 13 5 4 6 6 5 5 4 5 5 2 1 4 2 2 2 8 6 3 3 10 3 10 5 11 10 11 9 7 4
7 8 9 9 9 10 12 11 11 10 11 8 4 1 8 5 3 4 5 5 6 6 3 5 4 4 2 3 7 6 7 4 4 3 3 7 8 9 9 16 10 9 8 7 4
7 8 9 9 9 10 12 11 11 11 6 1 1 2 10 3 2 0 4 4 5 4 2 4 3 4 6 4 6 8 3 4 4 4 4 2 1 6 9 14 11 8 6 5 4
8 8 7 8 9 10 12 8 3 6 2 3 3 3 5 4 5 3 2 4 3 3 4 8 6 4 5 5 3 1 4 3 3 6 7 5 4 6 3 4 4 4 4 3 5
10 8 7 7 7 7 7 3 5 3 0 6 4 4 5 7 2 2 0 1 4 10 5 5 7 1 5 4 4 6 3 2 3 4 6 4 4 7 3 7 6 5 5 5 7
11 9 7 4 3 2 1 2 2 4 6 6 4 7 5 2 4 6 1 4 5 3 2 6 1 3 3 6 7 5 2 3 5 5 7 2 7 5 4 2 1 2 5 7 4
11 9 6 2 3 1 1 4 3 4 3 7 5 4 2 6 3 6 4 1 2 1 0 4 4 1 6 5 6 1 4 1 4 4 6 4 7 7 2 3 2 1 2 4 7
12 9 4 2 0 1 3 1 2 4 6 5 3 5 3 4 3 4 3 5 2 2 6 2 4 6 5 3 4 1 2 2 3 4 2 3 3 4 5 5 3 4 5 7 7
11 9 5 4 4 1 0 4 4 5 4 4 4 0 2 6 2 1 2 5 4 2 5 1 4 5 6 1 3 2 3 3 3 5 4 9 6 6 3 3 5 6 8 8 7
11 9 3 3 1 6 4 3 5 9 3 6 2 3 3 2 2 0 3 6 2 5 5 2 1 2 4 2 3 2 4 7 5 4 5 5 4 4 4 7 3 4 6 8 7
14 6 6 1 3 0 1 4 7 5 5 6 1 2 2 3 2 2 1 3 3 5 5 7 5 4 3 4 6 7 8 6 7 8 4 5 3 8 5 3 5 7 8 8 7
19 7 6 4 2 4 4 8 2 2 5 5 3 1 5 4 2 2 3 1 1 6 4 5 5 1 2 2 5 4 6 7 1 1 5 5 0 6 2 3 4 5 6 6 7
8 2 0 4 2 2 8 5 5 4 3 8 6 3 1 2 2 2 4 3 6 6 7 5 3 3 4 2 4 2 5 4 7 3 2 3 5 7 0 2 1 5 6 8 5
3 3 4 6 2 6 8 3 3 4 5 4 2 0 3 1 2 5 4 2 3 4 1 7 3 2 2 1 6 3 6 4 4 1 3 5 4 6 5 8 7 8 10 7 5
4 4 4 4 4 8 5 5 5 5 3 3 3 4 3 2 1 2 8 1 1 2 5 4 5 5 1 4 1 3 2 7 5 4 5 2 7 8 9 10 11 9 7 7 6
2 3 3 3 7 1 4 5 2 3 2 6 1 2 1 1 2 2 4 1 5 2 4 1 6 3 1 2 3 2 3 5 7 5 1 3 9 4 7 9 9 6 6 5 4
3 3 4 5 5 0 2 1 2 2 4 4 3 1 3 3 2 0 2 0 5 4 6 5 3 4 8 8 5 5 3 5 5 3 4 5 8 3 5 2 3 7 7 4 4
3 3 5 6 1 7 3 1 4 3 4 4 2 3 4 6 5 2 2 5 3 4 6 8 4 7 8 6 3 2 1 2 5 3 3 7 7 7 4 2 4 5 3 4 5
4 1 2 0 3 3 3 2 2 4 2 3 4 1 3 2 2 2 2 4 5 3 4 5 4 3 2 1 2 1 2 1 4 5 5 5 4 7 7 9 8 4 3 4 5
2 2 4 1 3 3 2 2 2 3 3 3 3 3 3 5 6 6 4 1 2 5 4 4 2 2 1 1 2 1 2 4 3 0 5 3 5 7 3 1 2 1 6 7 5
2 1 3 3 2 3 3 2 3 1 3 3 2 4 4 4 3 1 3 5 3 4 2 3 6 4 3 2 2 4 3 3 3 4 3 4 5 5 4 2 2 5 6 6 8
Wind_Direction
300 295 304 316 319 327 326 318 325 318 311 313 320 320 325 333 321 60 247 214 173 239 298 328 48 358 50 73 81 131 71 244 240 164 218 170 136 141 140 133 224 188 152 162 125
287 288 311 308 312 321 317 310 316 308 308 312 314 316 326 335 327 262 252 143 120 49 51 79 34 5 50 123 130 102 127 219 208 191 184 177 122 151 129 160 257 104 78 118 141
285 292 302 301 310 309 307 303 305 303 306 312 311 313 323 313 332 258 14 161 170 181 145 147 112 109 111 28 182 158 204 204 238 199 169 158 128 154 136 214 230 169 151 155 167
283 292 298 304 302 300 300 296 300 303 305 305 308 318 319 277 201 298 356 156 158 153 132 113 78 93 81 322 199 276 248 202 263 178 143 171 138 146 169 205 210 175 161 162 182
279 294 298 296 293 291 291 290 293 297 297 299 316 326 346 359 255 284 85 115 117 129 161 160 128 102 32 222 277 212 259 167 194 182 106 126 174 154 213 312 154 131 168 182 187
290 294 288 286 285 284 285 284 288 291 289 299 313 317 359 302 229 165 122 122 133 146 162 180 164 190 185 221 193 230 283 90 107 197 129 122 135 116 238 154 145 155 180 174 204
303 295 284 281 278 285 281 282 285 286 289 304 297 298 125 236 116 152 163 178 179 175 192 211 167 108 116 317 219 259 348 21 18 158 125 113 68 223 180 166 159 174 173 174 192
310 295 282 277 281 279 278 280 283 289 294 290 276 192 253 239 184 175 172 248 217 221 221 143 164 108 86 323 13 46 53 60 314 34 214 117 247 242 185 166 172 178 173 173 132
314 292 279 281 281 277 280 285 288 286 274 203 133 119 275 301 297 329 175 213 166 117 173 130 85 70 32 47 9 13 52 18 332 24 141 88 154 295 190 183 177 173 183 171 127
329 302 293 282 281 295 296 268 316 319 184 182 257 8 284 311 297 315 193 274 46 91 52 46 45 63 28 60 187 227 66 19 52 345 45 47 51 345 309 205 90 125 157 173 183
342 329 307 294 307 324 340 28 18 344 69 207 207 228 254 277 305 356 243 111 41 52 43 7 52 334 227 198 117 96 82 90 309 359 78 37 77 341 358 72 121 174 180 220 230
344 340 328 322 300 280 83 92 204 171 322 252 257 279 278 319 346 323 83 73 63 47 13 15 287 277 134 104 97 66 41 341 298 11 88 17 38 78 33 38 356 186 219 236 280
339 337 338 306 236 5 148 228 112 78 108 299 207 221 203 127 214 268 117 95 102 331 348 155 240 112 113 89 89 74 136 226 223 19 45 41 6 359 62 85 48 100 261 270 256
337 333 323 258 51 193 255 172 54 152 68 287 252 280 133 188 287 221 190 130 47 221 141 205 314 121 104 86 105 14 261 267 267 71 185 45 236 327 345 354 333 274 265 257 252
330 322 295 228 159 171 137 354 114 58 92 275 251 348 51 141 232 1 197 55 185 125 94 298 54 68 75 317 157 200 46 32 60 92 85 351 79 268 3 334 276 268 247 244 239
331 313 172 143 43 241 348 45 57 44 255 323 265 174 112 25 303 295 68 49 97 77 31 56 335 66 136 77 51 121 82 42 50 67 42 308 109 287 184 210 244 265 253 251 247
331 286 179 243 203 28 84 54 43 114 336 330 344 117 122 196 238 168 100 36 137 79 20 7 351 322 126 74 19 52 52 1 10 14 231 334 46 232 266 257 219 231 250 246 245
334 127 225 239 329 14 64 51 84 276 262 303 354 68 159 181 247 87 78 50 338 86 96 122 339 27 2 161 157 55 116 140 210 252 274 320 327 274 262 283 300 250 270 252 243
327 328 296 287 250 78 73 68 215 218 301 323 334 101 53 55 170 115 157 197 220 178 128 134 262 320 43 90 127 149 57 161 104 13 41 284 301 327 31 259 307 246 241 242 233
54 8 307 315 71 61 74 203 245 220 330 350 334 215 148 108 164 143 173 225 242 191 113 198 99 64 312 68 39 103 147 57 16 138 282 299 276 241 247 234 245 247 235 245 241
43 51 282 343 57 50 130 220 266 265 5 336 315 357 76 78 90 180 202 305 24 101 79 123 103 284 22 21 197 19 31 51 111 121 169 239 267 219 224 216 211 228 237 245 251
42 56 298 41 58 20 147 195 258 302 295 263 222 249 106 111 49 143 188 299 338 179 100 93 123 109 208 314 266 101 94 110 108 275 123 157 270 259 255 244 204 221 232 248 269
51 275 320 84 119 328 262 270 259 303 277 323 283 286 52 56 88 193 126 289 351 85 151 180 36 57 354 354 356 64 56 105 105 84 208 136 268 323 339 13 208 201 227 258 252
63 24 332 47 45 128 113 354 293 276 256 261 274 8 65 41 9 76 51 1 21 78 69 86 102 145 185 202 177 112 12 102 124 123 207 230 283 307 306 251 216 210 184 200 198
34 292 188 321 355 93 132 146 249 298 268 346 27 60 150 79 37 20 46 16 30 34 47 94 110 135 161 127 129 199 319 12 209 216 172 265 228 277 253 220 224 188 139 181 201
85 60 359 28 326 114 87 145 193 271 217 314 118 240 154 161 185 196 136 210 213 21 62 6 142 113 124 55 9 269 323 290 227 289 262 273 269 213 305 325 59 218 208 225 215
323 317 99 316 26 92 203 228 226 251 258 219 216 130 167 202 145 97 139 96 76 135 101 76 128 94 240 334 34 350 227 244 270 226 212 237 261 342 357 7 237 231 217 233 238